Terminal Aerodrome Forecast
Issued by NWS

Current Version | Previous Version | Graphics & Text | Print | Product List | Glossary On
Versions: 1 2 3 4 5 6 7 8 9 10 11 12 13 14 15 16 17 18 19 20 21
000
FTUS41 KILN 221700
TAFLUK
TAF
KLUK 221737Z 2218/2318 36006KT P6SM OVC025
     FM230000 04004KT P6SM OVC022
     FM230900 00000KT 5SM BR SCT022 BKN250
     FM231500 04005KT P6SM BKN150=

USA.gov is the U.S. government's official web portal to all federal, state and local government web resources and services.